Date,TemperatureHighF,TemperatureAvgF,TemperatureLowF,DewpointHighF,DewpointAvgF,DewpointLowF,HumidityHigh,HumidityAvg,HumidityLow,PressureMaxIn,PressureMinIn,WindSpeedMaxMPH,WindSpeedAvgMPH,GustSpeedMaxMPH,PrecipitationSumIn
2013-4-1,53,41,31,33,22,11,95,52,24,0.00,40.00,16,5,29,0.00
2013-4-2,46,32,21,29,18,11,97,60,28,0.00,40.00,12,4,23,0.00
2013-4-3,49,31,18,30,21,15,97,72,30,0.00,40.00,10,4,17,0.00
2013-4-4,56,39,24,23,19,15,71,46,25,0.00,40.00,7,4,13,0.00
2013-4-5,54,43,35,30,22,16,73,44,30,0.00,40.00,17,6,29,0.00
2013-4-6,52,40,28,30,22,14,81,52,24,0.00,40.00,14,5,25,0.00
2013-4-7,51,39,28,30,24,17,89,59,35,0.00,40.00,16,5,24,0.00
2013-4-8,44,36,28,34,24,15,96,65,38,0.00,40.00,16,4,30,0.00
2013-4-9,35,27,18,29,24,16,96,87,71,0.00,40.00,9,3,17,0.00
2013-4-10,31,20,11,17,13,9,93,74,51,0.00,40.00,12,4,24,0.00
2013-4-11,40,30,19,27,20,9,78,66,45,0.00,40.00,11,4,18,0.00
2013-4-12,51,35,22,24,20,13,85,59,28,0.00,40.00,12,4,19,0.00
2013-4-13,51,39,24,21,18,15,71,45,25,0.00,40.00,14,5,35,0.00
2013-4-14,46,37,26,34,22,13,99,60,31,0.00,40.00,19,7,35,0.00
2013-4-15,54,44,36,30,23,16,77,44,27,0.00,40.00,17,6,31,0.00
2013-4-16,54,44,37,22,17,13,40,33,23,0.00,40.00,27,11,49,0.00
2013-4-17,40,26,14,24,17,7,95,69,35,0.00,40.00,24,8,45,0.20
2013-4-18,26,16,10,9,6,1,85,64,43,0.00,40.00,14,4,23,0.00
2013-4-19,41,26,10,20,9,2,77,51,30,0.00,40.00,11,5,19,0.00
2013-4-20,38,31,26,33,27,21,94,86,67,0.00,40.00,12,2,19,0.00
2013-4-21,49,35,21,26,18,11,90,56,22,0.00,40.00,13,5,24,0.00
2013-4-22,55,45,37,25,21,15,59,39,27,0.00,40.00,20,7,32,0.00
2013-4-23,40,30,22,26,17,8,98,59,32,0.00,40.00,16,6,23,0.00
2013-4-24,46,33,22,13,9,5,57,37,23,0.00,40.00,14,4,21,0.00
2013-4-25,57,43,30,21,17,13,49,35,24,0.00,40.00,16,5,29,0.00
2013-4-26,56,40,26,24,20,17,74,47,27,0.00,40.00,12,4,21,0.00
2013-4-27,62,43,26,25,19,15,65,42,23,0.00,40.00,11,5,20,0.00
2013-4-28,62,45,28,26,20,16,60,40,23,0.00,40.00,12,6,20,0.00
2013-4-29,65,48,32,30,24,20,61,42,25,0.00,40.00,19,-1,28,0.00
2013-4-30,64,52,36,30,25,17,54,35,23,0.00,40.00,16,7,30,0.00